Location: Unspecified
(50.7693°N, 0.0000°E)
Time: 14:33:57
(UTC+00:00)

Transit 2A - Pass Details

Date: 29 June 2019
Orbit: 597 x 962 km, 66.7° (Epoch: 19 August)

Event Time Altitude Azimuth Distance (km) Brightness Sun altitude
Rises 21:35:38 0° 179° (S) 3,625 - -9.2°
Exits shadow 21:38:01 - 171° (S) 2,832 8.4 -9.4°
Reaches altitude 10° 21:38:28 10° 169° (S) 2,691 8.2 -9.4°
Maximum altitude 21:43:51 30° 111° (ESE) 1,638 7.3 -9.9°
Drops below altitude 10° 21:49:09 10° 53° (NE) 2,641 8.9 -10.3°
Sets 21:51:54 0° 43° (NE) 3,548 9.7 -10.5°
